Flag for Canada Weather past 2 weeks in Eureka, Nunavut Territory, Canada

Now
-40 °F

Passing clouds.


Feels Like: -54 °F
Forecast: -48 / -37 °F
Wind: 3 mph from Northeast

Location: Eureka

Current Time: Jan 28, 2015 at 8:44:19 AM

Latest Report: Jan 28, 2015 at 8:00 AM


Visibility: 15 mi

Pressure: 30.14 "Hg

Humidity: N/A

Dew point: N/A

Location of EurekaLocation

Historic Weather in Eureka — Graph

°F

Eureka temperature yesterday

Maximum temperature yesterday: -20 °F (at 12:00 AM)
Minimum temperature yesterday: -40 °F (at 10:00 PM)
Average temperature yesterday: -33 °F

Past Weeks' High & Low Weather Summary

 TemperatureHumidityPressure
High-13 °F (Jan 25, 4:00 AM)100% (Jan 18, 1:00 AM)30.24 "Hg (Jan 18, 1:00 AM)
Low-45 °F (Jan 23, 12:00 PM)20% (Jan 25, 8:00 PM)29.17 "Hg (Jan 27, 12:00 AM)
Average-31 °F66%29.81 "Hg
* Reported Jan 13 7:00 AM — Jan 28 7:00 AM, Eureka, Weather by CustomWeather, © 2014

Note: Actual official high and low records may vary slightly from our data, if they occured in-between our weather recording intervals... More about our weather records

Advertising

Eureka weather history for previous 24 hours

 ConditionsComfort  
Time TempWeatherWind HumidityBarometerVisibility
7:00 AM
Jan 28
-38 °FPassing clouds.No wind65%30.11 "Hg15 mi
6:00 AM-36 °FPassing clouds.3 mph66%30.08 "Hg15 mi
5:00 AM-38 °FClear.2 mph65%30.05 "Hg15 mi
4:00 AM-36 °FClear.6 mph59%30.02 "Hg15 mi
3:00 AM-38 °FClear.No wind52%30.00 "Hg15 mi
2:00 AM-36 °FClear.3 mph59%29.96 "Hg15 mi
1:00 AM-40 °FClear.3 mph81%29.93 "Hg15 mi
12:00 AM-38 °FSunny.3 mph65%29.89 "Hg15 mi
11:00 PM
Jan 27
-36 °FClear.No wind66%29.86 "Hg15 mi
10:00 PM-40 °FClear.No wind81%29.83 "Hg15 mi
9:00 PM-38 °FClear.3 mph58%29.79 "Hg15 mi
8:00 PM-36 °FClear.5 mph90%29.76 "Hg15 mi
7:00 PM-36 °FClear.3 mph59%29.71 "Hg15 mi
6:00 PM-36 °FSunny.8 mph59%29.67 "Hg15 mi
5:00 PM-36 °FSunny.2 mph66%29.63 "Hg15 mi
4:00 PM-35 °FSunny.6 mph81%29.59 "Hg15 mi
3:00 PM-33 °FSunny.No wind74%29.55 "Hg15 mi
2:00 PM-35 °FSunny.7 mph73%29.50 "Hg15 mi
1:00 PM-35 °FPassing clouds.7 mph66%29.46 "Hg15 mi
12:00 PM-33 °FPassing clouds.10 mph66%29.41 "Hg15 mi
11:00 AM-35 °FPassing clouds.6 mph66%29.38 "Hg15 mi
10:00 AM-33 °FPassing clouds.No wind66%29.35 "Hg15 mi
9:00 AM-35 °FSunny.No wind53%29.32 "Hg15 mi
8:00 AM-29 °FSunny.6 mph67%29.30 "Hg10 mi
Weather by CustomWeather, © 2014

See weather overviewHow to use our weather pages